Location: Bodest
(46.3000°N, 22.5667°E)
Time: 23:06:47
(UTC+00:00)

H-2A R/B - Pass Details

Date: 16 October 2021
Orbit: 527 x 651 km, 98.3° (Epoch: 26 November)

Event Time Altitude Azimuth Distance (km) Brightness Sun altitude
Rises 17:14:37 0° 172° (S) 2,937 5.9 -16.8°
Reaches altitude 10° 17:16:51 10° 175° (S) 2,021 5.1 -17.2°
Maximum altitude 17:21:14 66° 257° (WSW) 687 3.0 -18.0°
Drops below altitude 10° 17:25:31 10° 341° (NNW) 1,973 5.5 -18.7°
Sets 17:27:41 0° 344° (NNW) 2,862 6.3 -19.1°
